Regional Weather Roundup
Issued by NWS

Home | Current Version | Previous Version | Text Only | Print | Product List | Glossary On
Versions: 1 2 3 4 5 6 7 8 9 10 11 12 13 14 15 16 17 18 19 20 21 22 23 24 25 26 27 28 29 30 31 32 33 34 35 36 37 38 39 40 41 42 43 44 45 46 47 48 49 50
000
ASUS43 KDMX 271403
RWRIA

WEATHER ROUNDUP FOR IOWA
NATIONAL WEATHER SERVICE DES MOINES IA
900 AM CDT WED JUL 27 2016

NOTE: "FAIR" INDICATES FEW OR NO CLOUDS BELOW 12,000 FEET WITH NO
SIGNIFICANT WEATHER AND/OR OBSTRUCTIONS TO VISIBILITY.

* - THESE STATIONS ARE NOT NWS STATIONS...THUS NOT UNDER NWS
QUALITY CONTROL.  THEY ALSO DO NOT REPORT WEATHER SUCH
AS PRECIPITATION OR FOG.

IAZ001>003-012>014-020>022-031>034-043>046-271500-
   NORTHWEST IOWA

CITY           SKY/WX    TMP DP  RH WIND       PRES   REMARKS
CARROLL *      CLOUDY    70  66  88 NW6       30.01R
CHEROKEE *     LGT RAIN  69  68  98 CALM      30.01R
DENISON *      LGT RAIN  70  68  94 CALM      30.00R
LE MARS *      CLOUDY    73  68  83 S3        30.01S
SHELDON *      CLOUDY    72  70  94 CALM      29.97F
SIOUX CITY     CLOUDY    73  67  81 E5        30.00R
SPENCER        CLOUDY    70  66  87 SW3       30.00S
STORM LAKE *   CLOUDY    68  66  94 SW5       30.03R
$$

IAZ055>058-069>071-079>083-090>094-271500-
   SOUTHWEST IOWA

CITY           SKY/WX    TMP DP  RH WIND       PRES   REMARKS
ATLANTIC *     CLOUDY    75  68  78 SW5       29.99R
CLARINDA *       N/A     77  70  78 MISG      29.99S
COUNCIL BLFS * CLOUDY    75  70  83 CALM      30.00R
CRESTON *      SUNNY     73  70  88 S10       30.01R
HARLAN  *      LGT RAIN  70  68  94 N3        30.04R
LAMONI         SUNNY     74  67  78 S6        29.99F
RED OAK *      PTSUNNY   75  70  83 SW6       29.99R
SHENANDOAH *   SUNNY     73  72  94 S9        29.97S
$$

IAZ047>049-059>061-072>074-084-271500-
   CENTRAL IOWA

CITY           SKY/WX    TMP DP  RH WIND       PRES   REMARKS
AMES           MOSUNNY   73  70  90 SE6       29.99F
ANKENY *         N/A    N/A N/A N/A MISG        N/A
BOONE *        CLOUDY    75  68  78 VRB5      29.99R
CHARITON *       N/A    N/A N/A N/A MISG        N/A
DES MOINES     PTSUNNY   76  66  71 SE10      29.98S
GRINNELL*      SUNNY     75  65  71 E6        30.02F
KNOXVILLE *    SUNNY     73  68  83 E5        29.99S
MARSHALLTOWN   MOSUNNY   74  70  87 E5        30.01F
NEWTON *       SUNNY     73  70  88 E6        30.00F
PELLA *        SUNNY     75  67  76 E5        30.01F
PERRY *          N/A     73  70  91 CALM      30.00R
$$

IAZ004>006-015-016-023>025-035-036-271500-
   NORTH CENTRAL IOWA

CITY           SKY/WX    TMP DP  RH WIND       PRES   REMARKS
ALGONA *       CLOUDY    72  66  83 CALM      30.00F
ESTHERVILLE    CLOUDY    69  67  93 CALM      29.99R
FORT DODGE *   CLOUDY    70  66  88 SE3       30.01R
MASON CITY     PTSUNNY   73  67  81 E3        30.03F
FOREST CITY *    N/A     72  66  83 CALM      30.02S
IOWA FALLS *     N/A     75  69  81 E3        30.03S
$$

IAZ007>011-017>019-026>030-037>042-050>054-066-271500-
   NORTHEAST IOWA

CITY           SKY/WX    TMP DP  RH WIND       PRES   REMARKS
CEDAR RAPIDS   MOSUNNY   75  72  90 CALM      30.02R
CHARLES CITY * SUNNY     73  70  88 CALM      30.05R
CLINTON *      SUNNY     78  70  76 SE3       30.03S HX  80
DECORAH *      SUNNY     75  68  78 NW5       30.04R
DUBUQUE        SUNNY     77  66  68 CALM      30.04S
MONTICELLO *   SUNNY     75  68  78 CALM      30.02S
WATERLOO       SUNNY     77  68  73 CALM      30.02R
$$

IAZ064-065-067-068-078-271500-
   EAST CENTRAL IOWA

CITY           SKY/WX    TMP DP  RH WIND       PRES   REMARKS
DAVENPORT      MOSUNNY   76  68  76 E5        30.03S
IOWA CITY      MOSUNNY   75  69  81 CALM      30.03R
MT. PLEASANT * CLOUDY    78  74  88 CALM      30.01R HX  80
MUSCATINE *    MOSUNNY   75  70  83 NE3       30.01S
QUAD CITIES    SUNNY     79  67  66 NE5       30.01S HX  81
$$

IAZ062-063-075>077-085>089-095>099-271500-
   SOUTHEAST IOWA

CITY           SKY/WX    TMP DP  RH WIND       PRES   REMARKS
BURLINGTON     MOSUNNY   77  70  79 S5        30.00S
FAIRFIELD *    PTSUNNY   75  70  83 CALM      30.02R
KEOKUK *       CLOUDY    77  72  83 E5        30.00R
CENTERVILLE *    N/A     75  68  78 CALM      30.01F
WASHINGTON *   PTSUNNY   75  70  83 CALM      30.03R
$$

ABBREVIATIONS USED IN REMARKS
   TC - TEMPERATURES IN CELSIUS
  WCI - WIND CHILL INDEX
   HX - HEAT INDEX
  VSB - VISIBILITY
$$





USA.gov is the U.S. government's official web portal to all federal, state and local government web resources and services.